Location: Helsinki
(60.1699°N, 24.9384°E)
Time: 21:28:38
(UTC+02:00)

Transit 2A Rocket - Pass Details

Date: 24 September 2023
Orbit: 593 x 903 km, 66.7° (Epoch: 29 November)

Event Time Altitude Azimuth Distance (km) Brightness Sun altitude
Rises 01:30:24 0° 307° (NW) 2,989 8.5 -30.0°
Enters shadow 01:33:05 - 290° (WNW) 2,124 7.4 -30.0°
Reaches altitude 10° 01:33:27 10° 287° (WNW) 2,024 - -30.0°
Maximum altitude 01:36:17 17° 248° (WSW) 1,594 - -29.9°
Drops below altitude 10° 01:39:02 10° 209° (SSW) 1,950 - -29.9°
Sets 01:41:54 0° 188° (S) 2,830 - -29.8°
